[ hide orbit diagram ]
For accurate long-term ephemerides, please instead use our Horizons system.This orbit viewer was implemented using two-body methods, and hence should not be used for determining accurate long-term trajectories (over several years or decades) or planetary encounter circumstances.
Orbital Elements at Epoch 2459200.5 (2020-Dec-17.0) TDB
Reference: JPL 33 (heliocentric ecliptic J2000)
Element | Value | Uncertainty (1-sigma) | Units |
e | .09730593368430569 | 2.9405e-08 | |
a | 2.268317846338147 | 6.2993e-09 | au |
q | 2.04759706040744 | 6.6761e-08 | au |
i | 4.768102547549545 | 3.7013e-06 | deg |
node | 19.63085324979057 | 3.9204e-05 | deg |
peri | 57.55916795875105 | 4.4744e-05 | deg |
M | 357.4623198267927 | 1.995e-05 | deg |
tp | 2459209.296070006467 (2020-Dec-25.79607001) | 6.9144e-05 | TDB |
period | 1247.826749706549 3.42 | 5.198e-06 1.423e-08 | d yr |
n | .2885015889302429 | 1.2018e-09 | deg/d |
Q | 2.489038632268854 | 6.9123e-09 | au |
|
| | Orbit Determination Parameters
Additional Information
|
[ show covariance matrix ]
Physical Parameter Table
Parameter |
Symbol |
Value |
Units |
Sigma |
Reference |
Notes |
absolute magnitude |
H |
14.59 |
|
n/a |
E2021B10 |
|
|
11626 Church Stretton | Discovered 1996 Nov. 8 by S. P. Laurie at Church Stretton. |
The small town of Church Stretton, where this minor planet was discovered, is set amidst the South Shropshire hills of western England. |
NOTE: some special characters may not display properly (any characters within {} are an attempt to place the proper accent above a character) |
Reference: 20080321/MPCPages.arc | Last Updated: 2008-03-26 |
|
[ show close-approach data ]
Alternate Designations
1996 VW2 = 1981 JJ4 = 1991 GD9 |
|
|